This is the latest recevied weather packets stored in our database for station/object W4TTU-1. If no packets are shown the sender has not sent any weather packets the latest 10 day(s).
| Time | Temp. | Humidity | Pressure | Rain* | Wind** | Luminosity | Snow |
|---|---|---|---|---|---|---|---|
| 1777791673 | 10.56° C | 26% | 847.1 hPa | 0 mm | - | - | - |
| 1777790773 | 11.11° C | 26% | 846.9 hPa | 0 mm | - | - | - |
| 1777789872 | 11.67° C | 26% | 846.9 hPa | 0 mm | - | - | - |
| 1777788972 | 12.78° C | 26% | 847 hPa | 0 mm | - | - | - |
| 1777787170 | 13.89° C | 25% | 846.7 hPa | 0 mm | - | - | - |
| 1777786270 | 14.44° C | 25% | 846.6 hPa | 0 mm | - | - | - |
| 1777785369 | 15° C | 24% | 846.6 hPa | 0 mm | - | - | - |
| 1777784469 | 16.11° C | 24% | 846.6 hPa | 0 mm | - | - | - |
| 1777783568 | 16.67° C | 24% | 846.5 hPa | 0 mm | - | - | - |
| 1777782668 | 17.22° C | 24% | 846.6 hPa | 0 mm | - | - | - |
| 1777781767 | 18.33° C | 23% | 846.7 hPa | 0 mm | - | - | - |
| 1777780867 | 18.89° C | 22% | 846.6 hPa | 0 mm | - | - | - |
| 1777779966 | 20° C | 23% | 846.3 hPa | 0 mm | - | - | - |
| 1777779066 | 21.11° C | 23% | 846.2 hPa | 0 mm | - | - | - |
| 1777778165 | 22.22° C | 22% | 846 hPa | 0 mm | - | - | - |
| 1777777265 | 23.33° C | 22% | 846 hPa | 0 mm | - | - | - |
| 1777776364 | 24.44° C | 22% | 845.8 hPa | 0 mm | - | - | - |
| 1777775464 | 25.56° C | 21% | 845.6 hPa | 0 mm | - | - | - |
| 1777774563 | 27.22° C | 21% | 845.5 hPa | 0 mm | - | - | - |
| 1777773663 | 28.33° C | 21% | 845.1 hPa | 0 mm | - | - | - |
| 1777772762 | 30° C | 21% | 844.9 hPa | 0 mm | - | - | - |
| 1777771862 | 31.11° C | 21% | 844.6 hPa | 0 mm | - | - | - |
| 1777770961 | 32.22° C | 21% | 844.6 hPa | 0 mm | - | - | - |
| 1777770061 | 32.78° C | 21% | 844.5 hPa | 0 mm | - | - | - |
| 1777769160 | 33.33° C | 21% | 844.4 hPa | 0 mm | - | - | - |
* Rain since midnight (hover to see other rain measurements)
** Current wind speed in m/s (hover to see current wind gust speed)